SCP
0 0 0 0 0 0 0 0 0 0 0 0 0 0 0 0 0 0 0 0 0 0
0 0 0 0 0 0 0 0 0 0 0 0 0 0 0 0 0 0 0 0 0 0
0 0 0 0 0 0 0 0 0 0 0 0 0 0 0 0 0 0 0 0 0 0
0 0 0 0 0 0 0 0 0 0 0 0 0 0 0 0 0 0 0 0 0 0
0 0 0 0 0 0 0 0 0 0 0 0 0 0 0 0 0 0 0 0 0 0
0 0 0 0 0 0 0 0 0 0 0 0 0 0 0 0 0 0 0 0 0 0
0 0 0 0 0 0 0 0 0 0 0 0 0 0 0 0 0 0 0 0 0 0
0 0 0 0 0 0 0 0 0 0 0 0 0 0 0 0 0 0 0 0 0 0
0 0 0 0 0 0 0 0 0 0 0 0 0 0 0 0 0 0 0 0 0 0
0 0 0 0 0 0 0 0 0 0 0 0 0 0 0 0 0 0 0 0 0 0
0 0 0 0 0 0 0 0 0 0 0 0 0 0 0 0 0 0 0 0 0 0
0 0 0 0 0 0 0 0 0 0 0 0 0 0 0 0 0 0 0 0 0 0
0 0 0 0 0 0 0 0 0 0 0 0 0 0 0 0 0 0 0 0 0 0
0 0 0 0 0 0 0 0 0 0 0 0 0 0 0 0 0 0 0 0 0 0
Wind_Speed_500mb
35 40 25 19 20 23 27 28 27 27 25 32 34 37 41 47 54 57 59 57 63 65
19 24 32 27 19 20 22 28 29 31 32 34 35 39 42 47 53 59 60 63 63 64
15 13 10 7 4 1 5 9 14 19 23 27 31 34 39 42 44 50 54 58 61 64
20 17 14 10 7 2 3 8 13 17 21 25 30 35 39 43 45 48 52 54 57 61
14 10 7 5 4 7 10 13 16 19 22 25 30 34 39 42 44 49 52 54 58 61
12 10 9 10 12 13 15 18 21 24 27 29 33 35 39 43 45 47 50 53 56 58
12 11 10 12 14 16 19 23 25 28 31 34 37 40 44 48 52 54 55 56 58 60
10 11 12 14 16 20 23 27 31 34 37 41 45 50 54 58 62 65 68 68 68 68
7 9 12 16 18 22 27 30 33 37 40 43 47 52 56 61 63 66 70 75 75 75
9 11 14 18 23 26 30 34 37 42 46 48 50 56 60 64 68 71 72 75 76 79
8 13 18 22 28 33 38 43 47 49 53 57 57 61 64 69 72 75 75 76 76 76
15 20 26 31 36 42 48 51 55 58 61 65 66 67 70 73 77 78 79 79 77 74
23 29 34 40 45 50 56 60 62 64 64 66 69 67 69 72 75 78 79 78 75 70
28 34 41 46 51 56 61 64 66 68 66 67 68 69 69 71 73 72 74 74 72 64
Wind_Direction_500mb
217 220 225 235 246 250 252 263 274 284 274 280 280 278 277 279 284 285 283 288 288 293
211 217 224 241 235 237 243 249 260 265 274 277 279 278 277 277 280 281 283 286 285 286
103 109 112 108 94 330 282 278 272 274 275 275 277 278 279 280 281 280 280 280 282 284
106 104 104 103 100 85 298 297 301 302 301 299 298 298 298 297 296 295 295 295 293 292
111 108 110 93 49 13 350 342 335 332 326 322 319 317 314 310 309 308 306 306 302 300
114 103 76 51 34 18 4 353 347 341 335 330 325 321 317 317 317 314 312 311 309 307
94 76 51 32 14 3 353 346 339 334 331 330 328 326 324 321 320 319 317 315 313 311
71 45 24 12 2 354 346 341 338 336 335 334 331 329 327 324 323 321 319 318 316 314
51 22 1 355 347 343 338 335 332 330 330 329 327 323 322 320 318 317 316 315 313 311
20 2 351 345 337 335 331 329 327 325 324 324 325 322 321 319 318 317 317 314 313 310
351 337 333 331 330 328 325 322 320 320 321 320 322 319 318 317 316 314 314 312 311 309
326 323 323 324 322 319 316 315 317 319 319 318 319 318 316 315 314 314 314 314 314 312
319 318 318 319 319 319 319 318 317 316 317 317 316 315 315 314 313 314 313 314 313 314
315 318 319 320 321 320 318 317 317 316 317 317 317 316 315 313 313 313 313 314 316 316
Wind_Speed_850mb
35 40 25 19 20 23 27 28 27 27 25 32 34 37 41 47 54 57 59 57 63 65
19 24 32 27 19 20 22 28 29 31 32 34 35 39 42 47 53 59 60 63 63 64
15 13 10 7 4 1 5 9 14 19 23 27 31 34 39 42 44 50 54 58 61 64
20 17 14 10 7 2 3 8 13 17 21 25 30 35 39 43 45 48 52 54 57 61
14 10 7 5 4 7 10 13 16 19 22 25 30 34 39 42 44 49 52 54 58 61
12 10 9 10 12 13 15 18 21 24 27 29 33 35 39 43 45 47 50 53 56 58
12 11 10 12 14 16 19 23 25 28 31 34 37 40 44 48 52 54 55 56 58 60
10 11 12 14 16 20 23 27 31 34 37 41 45 50 54 58 62 65 68 68 68 68
7 9 12 16 18 22 27 30 33 37 40 43 47 52 56 61 63 66 70 75 75 75
9 11 14 18 23 26 30 34 37 42 46 48 50 56 60 64 68 71 72 75 76 79
8 13 18 22 28 33 38 43 47 49 53 57 57 61 64 69 72 75 75 76 76 76
15 20 26 31 36 42 48 51 55 58 61 65 66 67 70 73 77 78 79 79 77 74
23 29 34 40 45 50 56 60 62 64 64 66 69 67 69 72 75 78 79 78 75 70
28 34 41 46 51 56 61 64 66 68 66 67 68 69 69 71 73 72 74 74 72 64
Wind_Direction_850mb
217 220 225 235 246 250 252 263 274 284 274 280 280 278 277 279 284 285 283 288 288 293
211 217 224 241 235 237 243 249 260 265 274 277 279 278 277 277 280 281 283 286 285 286
103 109 112 108 94 330 282 278 272 274 275 275 277 278 279 280 281 280 280 280 282 284
106 104 104 103 100 85 298 297 301 302 301 299 298 298 298 297 296 295 295 295 293 292
111 108 110 93 49 13 350 342 335 332 326 322 319 317 314 310 309 308 306 306 302 300
114 103 76 51 34 18 4 353 347 341 335 330 325 321 317 317 317 314 312 311 309 307
94 76 51 32 14 3 353 346 339 334 331 330 328 326 324 321 320 319 317 315 313 311
71 45 24 12 2 354 346 341 338 336 335 334 331 329 327 324 323 321 319 318 316 314
51 22 1 355 347 343 338 335 332 330 330 329 327 323 322 320 318 317 316 315 313 311
20 2 351 345 337 335 331 329 327 325 324 324 325 322 321 319 318 317 317 314 313 310
351 337 333 331 330 328 325 322 320 320 321 320 322 319 318 317 316 314 314 312 311 309
326 323 323 324 322 319 316 315 317 319 319 318 319 318 316 315 314 314 314 314 314 312
319 318 318 319 319 319 319 318 317 316 317 317 316 315 315 314 313 314 313 314 313 314
315 318 319 320 321 320 318 317 317 316 317 317 317 316 315 313 313 313 313 314 316 316